User: anonymous   Login
Location: Caltech
(34.1382°N, 118.1253°W)
Time: 23:29:58
(UTC-08:00)
Language:

CZ-2C R/B - Orbit

View from above orbital plane
View from above orbital plane
View from above satellite
View from above satellite

Ground track
Ground track

The orbit data is extracted from the following two-line orbital elements,

1 36089U 09061B   17328.57988427  .00000118  00000-0  40910-4 0  9991
2 36089  98.0597 323.3200 0080707 271.8157 196.0519 14.49694065424944
Epoch (UTC): 24 November 2017 13:55:02
Eccentricity: 0.0080707
inclination: 98.0597°
perigee height: 669 km
apogee height: 784 km
right ascension of ascending node: 323.3200°
argument of perigee: 271.8157°
revolutions per day: 14.49694065
mean anomaly at epoch: 196.0519°
orbit number at epoch: 42494

The dashed part of the orbit path shows where the satellite is in the earth's shadow,  

DLR